Weather History for Holdrege, NE

Change the Weather History Date:

Wednesday, May 22, 2013

  Actual Average Record
Temperature  
Mean Temperature 60 °F -  
Max Temperature 71 °F 74 °F 95 °F (1964)
Min Temperature 48 °F 51 °F 34 °F (1963)
Degree Days  
Heating Degree Days 6    
Growing Degree Days 10 (Base 50)    
Moisture  
Dew Point 45 °F    
Average Humidity 65    
Maximum Humidity 87    
Minimum Humidity 43    
Precipitation  
Precipitation 0.00 in - - ()
Sea Level Pressure  
Sea Level Pressure 29.91 in    
Wind  
Wind Speed 12 mph (NNW)    
Max Wind Speed 21 mph    
Max Gust Speed 25 mph    
Visibility 10 miles    
Events      
Averages and records for this station are not official NWS values.
T = Trace of Precipitation, MM = Missing Value Source: NWS Daily Summary

Daily Weather History Graph

Daily Weather History Graph

Search for Another Location

Airport:

Trip Planner

Search our weather history database for the weather conditions in past years. The results will help you decide how hot, cold, wet, or windy it might be!

Date:

Astronomy

May. 22, 2013 Rise Set
Actual Time 6:14 AM CDT 8:53 PM CDT
Civil Twilight 5:43 AM CDT 9:25 PM CDT
Nautical Twilight 5:03 AM CDT 10:05 PM CDT
Astronomical Twilight 4:19 AM CDT 10:49 PM CDT
Moon 6:17 PM CDT (5/22) 4:20 AM CDT (5/22)
Length of Visible Light 15h 42m
Length of Day
14h 38m
Waxing Gibbous, 91% of the Moon is Illuminated
May 22
Waxing Gibbous
May 24
Full
May 31
Last Quarter
Jun 8
New
Jun 16
First Quarter

Hourly Weather History & Observations

Time (CDT) Temp. Dew Point Humidity Pressure Visibility Wind Dir Wind Speed Gust Speed Precip Events Conditions
12:17 AM 50.0 °F 44.6 °F 82% 29.83 in 10.0 mi NNW 10.4 mph - N/A   Clear
12:37 AM 50.0 °F 44.6 °F 82% 29.83 in 10.0 mi NNW 11.5 mph - N/A   Clear
12:57 AM 48.2 °F 44.6 °F 87% 29.83 in 10.0 mi NW 9.2 mph - N/A   Clear
1:17 AM 48.2 °F 44.6 °F 87% 29.84 in 10.0 mi NW 9.2 mph - N/A   Scattered Clouds
1:37 AM 50.0 °F 42.8 °F 76% 29.85 in 10.0 mi NNW 12.7 mph - N/A   Scattered Clouds
1:57 AM 50.0 °F 42.8 °F 76% 29.85 in 10.0 mi NNW 12.7 mph 17.3 mph N/A   Mostly Cloudy
2:17 AM 50.0 °F 44.6 °F 82% 29.86 in 10.0 mi NNW 9.2 mph - N/A   Overcast
2:37 AM 50.0 °F 42.8 °F 76% 29.86 in 10.0 mi NNW 15.0 mph 23.0 mph N/A   Overcast
2:59 AM 50.0 °F 42.8 °F 76% 29.86 in 10.0 mi NNW 12.7 mph 17.3 mph N/A   Overcast
3:19 AM 50.0 °F 42.8 °F 76% 29.86 in 10.0 mi NNW 10.4 mph - N/A   Overcast
3:40 AM 50.0 °F 42.8 °F 76% 29.86 in 10.0 mi North 12.7 mph 16.1 mph N/A   Overcast
4:00 AM 50.0 °F 42.8 °F 76% 29.87 in 10.0 mi North 12.7 mph 23.0 mph N/A   Overcast
4:19 AM 50.0 °F 42.8 °F 76% 29.88 in 10.0 mi NNW 12.7 mph 18.4 mph N/A   Overcast
4:39 AM 50.0 °F 42.8 °F 76% 29.89 in 10.0 mi NW 12.7 mph - N/A   Overcast
5:03 AM 50.0 °F 42.8 °F 76% 29.89 in 10.0 mi NNW 12.7 mph 18.4 mph N/A   Overcast
5:19 AM 50.0 °F 42.8 °F 76% 29.89 in 10.0 mi NNW 8.1 mph - N/A   Overcast
5:37 AM 50.0 °F 42.8 °F 76% 29.89 in 10.0 mi NNW 10.4 mph 17.3 mph N/A   Overcast
5:57 AM 50.0 °F 42.8 °F 76% 29.89 in 10.0 mi NNW 12.7 mph - N/A   Overcast
6:17 AM 48.2 °F 42.8 °F 82% 29.90 in 10.0 mi NW 9.2 mph 18.4 mph N/A   Overcast
6:37 AM 48.2 °F 44.6 °F 87% 29.90 in 10.0 mi NW 10.4 mph 17.3 mph N/A   Overcast
6:57 AM 48.2 °F 44.6 °F 87% 29.90 in 10.0 mi NW 10.4 mph 16.1 mph N/A   Overcast
7:17 AM 48.2 °F 44.6 °F 87% 29.90 in 10.0 mi NW 10.4 mph - N/A   Overcast
7:37 AM 50.0 °F 44.6 °F 82% 29.90 in 10.0 mi NW 12.7 mph - N/A   Overcast
7:57 AM 50.0 °F 44.6 °F 82% 29.90 in 10.0 mi NW 9.2 mph - N/A   Overcast
8:17 AM 51.8 °F 44.6 °F 76% 29.90 in 10.0 mi NNW 13.8 mph 19.6 mph N/A   Mostly Cloudy
8:37 AM 51.8 °F 44.6 °F 76% 29.90 in 10.0 mi NW 15.0 mph 23.0 mph N/A   Overcast
8:57 AM 51.8 °F 44.6 °F 76% 29.91 in 10.0 mi NW 16.1 mph 20.7 mph N/A   Overcast
9:17 AM 53.6 °F 44.6 °F 72% 29.91 in 10.0 mi NW 16.1 mph 20.7 mph N/A   Overcast
9:37 AM 53.6 °F 44.6 °F 72% 29.91 in 10.0 mi NW 16.1 mph 23.0 mph N/A   Overcast
9:57 AM 55.4 °F 44.6 °F 67% 29.91 in 10.0 mi NNW 17.3 mph 21.9 mph N/A   Overcast
10:17 AM 55.4 °F 44.6 °F 67% 29.91 in 10.0 mi NNW 12.7 mph 24.2 mph N/A   Overcast
10:37 AM 55.4 °F 44.6 °F 67% 29.91 in 10.0 mi NW 13.8 mph 18.4 mph N/A   Overcast
10:57 AM 57.2 °F 46.4 °F 67% 29.92 in 10.0 mi NNW 12.7 mph 24.2 mph N/A   Overcast
11:17 AM 57.2 °F 46.4 °F 67% 29.92 in 10.0 mi WNW 12.7 mph 19.6 mph N/A   Overcast
11:38 AM 60.8 °F 46.4 °F 59% 29.92 in 10.0 mi NNW 10.4 mph 19.6 mph N/A   Mostly Cloudy
11:58 AM 62.6 °F 46.4 °F 55% 29.91 in 10.0 mi NNW 10.4 mph - N/A   Scattered Clouds
12:20 PM 62.6 °F 46.4 °F 55% 29.91 in 10.0 mi NW 8.1 mph 17.3 mph N/A   Scattered Clouds
12:37 PM 64.4 °F 46.4 °F 52% 29.91 in 10.0 mi North 15.0 mph 18.4 mph N/A   Scattered Clouds
12:57 PM 64.4 °F 46.4 °F 52% 29.91 in 10.0 mi North 11.5 mph 16.1 mph N/A   Scattered Clouds
1:17 PM 64.4 °F 46.4 °F 52% 29.91 in 10.0 mi NNW 11.5 mph - N/A   Scattered Clouds
1:37 PM 66.2 °F 46.4 °F 49% 29.90 in 10.0 mi NNW 9.2 mph - N/A   Mostly Cloudy
1:58 PM 68.0 °F 46.4 °F 46% 29.90 in 10.0 mi NNW 12.7 mph 17.3 mph N/A   Mostly Cloudy
2:17 PM 68.0 °F 46.4 °F 46% 29.90 in 10.0 mi North 9.2 mph - N/A   Mostly Cloudy
2:37 PM 69.8 °F 46.4 °F 43% 29.90 in 10.0 mi North 10.4 mph 17.3 mph N/A   Mostly Cloudy
2:57 PM 69.8 °F 46.4 °F 43% 29.89 in 10.0 mi NNW 15.0 mph 18.4 mph N/A   Mostly Cloudy
3:17 PM 69.8 °F 46.4 °F 43% 29.89 in 10.0 mi NNW 8.1 mph 17.3 mph N/A   Mostly Cloudy
3:37 PM 69.8 °F 46.4 °F 43% 29.89 in 10.0 mi NNW 11.5 mph 17.3 mph N/A   Mostly Cloudy
3:57 PM 69.8 °F 46.4 °F 43% 29.89 in 10.0 mi North 11.5 mph 16.1 mph N/A   Mostly Cloudy
4:17 PM 69.8 °F 48.2 °F 46% 29.90 in 10.0 mi NNE 11.5 mph 18.4 mph N/A   Overcast
4:37 PM 69.8 °F 46.4 °F 43% 29.90 in 10.0 mi North 10.4 mph 17.3 mph N/A   Mostly Cloudy
4:57 PM 68.0 °F 46.4 °F 46% 29.90 in 10.0 mi North 10.4 mph - N/A   Mostly Cloudy
5:17 PM 71.6 °F 48.2 °F 43% 29.90 in 10.0 mi North 13.8 mph 17.3 mph N/A   Mostly Cloudy
5:38 PM 69.8 °F 46.4 °F 43% 29.91 in 10.0 mi North 11.5 mph 18.4 mph N/A   Scattered Clouds
6:00 PM 68.0 °F 46.4 °F 46% 29.91 in 10.0 mi North 11.5 mph 16.1 mph N/A   Scattered Clouds
6:17 PM 68.0 °F 46.4 °F 46% 29.91 in 10.0 mi North 10.4 mph 17.3 mph N/A   Scattered Clouds
6:37 PM 69.8 °F 48.2 °F 46% 29.91 in 10.0 mi NNE 13.8 mph 19.6 mph N/A   Clear
6:57 PM 68.0 °F 46.4 °F 46% 29.92 in 10.0 mi NNE 12.7 mph 19.6 mph N/A   Clear
7:17 PM 66.2 °F 48.2 °F 52% 29.93 in 10.0 mi NNE 17.3 mph - N/A   Clear
7:37 PM 66.2 °F 48.2 °F 52% 29.93 in 10.0 mi North 17.3 mph - N/A   Clear
7:57 PM 64.4 °F 46.4 °F 52% 29.95 in 10.0 mi North 16.1 mph 20.7 mph N/A   Clear
8:17 PM 64.4 °F 46.4 °F 52% 29.96 in 10.0 mi North 16.1 mph 19.6 mph N/A   Clear
8:37 PM 62.6 °F 46.4 °F 55% 29.97 in 10.0 mi North 16.1 mph - N/A   Clear
8:57 PM 60.8 °F 46.4 °F 59% 29.98 in 10.0 mi North 12.7 mph - N/A   Clear
9:17 PM 59.0 °F 46.4 °F 63% 29.99 in 10.0 mi North 20.7 mph 25.3 mph N/A   Clear
9:37 PM 57.2 °F 48.2 °F 72% 30.00 in 10.0 mi NNE 13.8 mph - N/A   Clear
9:57 PM 55.4 °F 48.2 °F 77% 30.01 in 10.0 mi NNE 16.1 mph - N/A   Clear
10:17 PM 55.4 °F 46.4 °F 72% 30.02 in 10.0 mi NNE 10.4 mph - N/A   Clear
10:37 PM 53.6 °F 46.4 °F 77% 30.04 in 10.0 mi NNE 10.4 mph - N/A   Clear
10:57 PM 53.6 °F 48.2 °F 82% 30.05 in 10.0 mi NNE 11.5 mph 18.4 mph N/A   Clear
11:19 PM 53.6 °F 46.4 °F 77% 30.05 in 10.0 mi NNE 12.7 mph - N/A   Clear
11:37 PM 51.8 °F 46.4 °F 82% 30.06 in 10.0 mi NNE 10.4 mph - N/A   Clear
11:57 PM 51.8 °F 46.4 °F 82% 30.07 in 10.0 mi NNE 11.5 mph - N/A   Clear